Last 48 Hours

Stanford Met Tower

Hourly Data | America/Los_Angeles
as of 5/6/26 9:20 AM PDT
Date & Time Temp (°F) RH (%) Dew Pt (°F) Wind Dir (°) Wind Spd (mph) Wind Gust (mph) Solar Rad (W/m2) Pressure (mb) NowCast AQI Value (AQI) NowCast AQI Status Latest Rain (In) Daily Rain (In) Daily Min Temp (°F) Daily Max Temp (°F)
5/6/26 - 0900 56.5 81 51.8 WNW | 298 1.3 4.6 95 1,023.3 5 Good 0.00 0.00 49.7 57.6
5/6/26 - 0800 54.7 90 52.7 WNW | 290 1.5 3.7 49 1,023.2 5 Good 0.00 0.00 49.7 57.4
5/6/26 - 0700 52.3 96 52.3 W | 268 1.9 4.0 10 1,023.1 4 Good 0.00 0.00 49.7 57.4
5/6/26 - 0600 50.6 97 50.7 W | 259 2.2 4.4 0 1,022.6 4 Good 0.00 0.00 49.7 57.4
5/6/26 - 0500 50.9 95 50.6 WSW | 253 1.8 4.0 0 1,022.3 3 Good 0.00 0.00 50.0 57.4
5/6/26 - 0400 53.2 90 51.2 NW | 323 0.7 2.4 0 1,021.8 3 Good 0.00 0.00 51.8 57.4
5/6/26 - 0300 55.8 84 52.2 WNW | 284 0.1 1.8 0 1,021.5 3 Good 0.00 0.00 55.0 57.4
5/6/26 - 0200 56.8 82 52.2 NNE | 28 0.8 2.7 0 1,021.4 3 Good 0.00 0.00 56.2 57.4
5/6/26 - 0100 56.8 79 51.2 ENE | 59 0.6 2.1 0 1,021.5 3 Good 0.00 0.01 51.0 63.5
5/6/26 - 0000 57.1 76 50.6 SW | 215 1.2 3.3 0 1,021.0 2 Good 0.00 0.01 51.0 63.5
5/5/26 - 2300 57.4 75 50.7 SSW | 213 1.9 4.4 0 1,020.7 2 Good 0.00 0.01 51.0 63.5
5/5/26 - 2200 57.8 75 51.1 SW | 230 2.8 8.8 0 1,020.2 3 Good 0.00 0.01 51.0 63.5
5/5/26 - 2100 58.2 75 51.5 SW | 225 3.4 7.4 0 1,019.5 4 Good 0.00 0.01 51.0 63.5
5/5/26 - 2000 59.4 72 51.1 SW | 223 5.2 12.1 29 1,018.8 4 Good 0.00 0.01 51.0 63.5
5/5/26 - 1900 60.0 70 51.2 WSW | 244 4.7 10.1 69 1,018.2 4 Good 0.00 0.01 51.0 63.5
5/5/26 - 1800 60.3 69 51.2 WSW | 241 5.7 12.5 103 1,018.2 4 Good 0.00 0.01 51.0 63.5
5/5/26 - 1700 61.2 67 51.2 W | 264 6.1 13.3 122 1,017.7 5 Good 0.00 0.01 51.0 63.5
5/5/26 - 1600 62.4 63 50.7 WNW | 288 4.2 9.8 268 1,017.6 5 Good 0.00 0.01 51.0 63.5
5/5/26 - 1500 61.4 65 50.4 NW | 313 5.8 11.3 309 1,017.9 5 Good 0.00 0.01 51.0 62.6
5/5/26 - 1400 61.2 64 50.1 NW | 306 5.8 14.2 294 1,018.1 5 Good 0.00 0.01 51.0 61.8
5/5/26 - 1300 60.0 69 50.8 W | 280 5.9 12.4 446 1,018.2 5 Good 0.00 0.01 51.0 61.8
5/5/26 - 1200 58.0 76 51.6 W | 271 5.5 12.5 253 1,018.6 5 Good 0.00 0.01 51.0 59.0
5/5/26 - 1100 56.6 79 51.2 WNW | 287 2.7 12.8 142 1,018.7 6 Good 0.00 0.01 51.0 57.7
5/5/26 - 1000 55.6 78 49.9 W | 267 0.6 3.0 108 1,018.4 6 Good 0.00 0.01 51.0 56.4
5/5/26 - 0900 54.4 86 51.1 ENE | 59 0.5 2.1 93 1,018.3 4 Good 0.00 0.01 51.0 55.8
5/5/26 - 0800 52.4 93 51.4 S | 184 1.7 4.7 54 1,017.9 4 Good 0.00 0.01 51.0 54.1
5/5/26 - 0700 51.3 95 50.8 SSW | 202 1.7 5.3 5 1,017.8 4 Good 0.00 0.01 51.0 54.1
5/5/26 - 0600 51.3 94 50.8 SSE | 168 2.3 4.7 0 1,017.4 3 Good 0.00 0.01 51.1 54.1
5/5/26 - 0500 51.4 92 50.0 SSW | 207 0.6 2.4 0 1,017.5 3 Good 0.01 0.01 51.1 54.1
5/5/26 - 0400 52.2 85 48.9 SSW | 211 2.1 4.4 0 1,017.7 4 Good 0.00 0.00 51.5 54.1
5/5/26 - 0300 52.7 78 47.2 WSW | 257 2.6 5.9 0 1,017.8 4 Good 0.00 0.00 52.4 54.1
5/5/26 - 0200 53.4 74 46.2 WSW | 257 3.4 7.9 0 1,018.1 4 Good 0.00 0.00 53.0 54.1
5/5/26 - 0100 54.0 73 46.5 WNW | 295 4.4 10.5 0 1,018.4 4 Good 0.00 0.00 46.2 65.5
5/5/26 - 0000 54.1 76 47.6 NW | 312 3.5 7.6 0 1,018.2 4 Good 0.00 0.00 46.2 65.5
5/4/26 - 2300 54.7 78 48.9 NW | 306 5.2 14.6 0 1,017.9 4 Good 0.00 0.00 46.2 65.5
5/4/26 - 2200 55.4 78 49.7 NW | 314 4.6 11.1 0 1,018.5 4 Good 0.00 0.00 46.2 65.5
5/4/26 - 2100 56.2 73 48.7 NW | 310 5.1 10.5 0 1,017.8 4 Good 0.00 0.00 46.2 65.5
5/4/26 - 2000 57.8 64 46.6 WNW | 297 4.8 10.4 20 1,017.2 4 Good 0.00 0.00 46.2 65.5
5/4/26 - 1900 59.2 61 46.8 NW | 314 6.1 12.4 78 1,017.0 4 Good 0.00 0.00 46.2 65.5
5/4/26 - 1800 60.2 60 47.3 NW | 322 5.8 13.3 75 1,017.2 4 Good 0.00 0.00 46.2 65.5
5/4/26 - 1700 61.9 60 48.6 WSW | 240 6.5 12.9 234 1,016.9 4 Good 0.00 0.00 46.2 65.5
5/4/26 - 1600 62.8 61 50.0 WSW | 241 7.9 15.2 528 1,016.6 4 Good 0.00 0.00 46.2 65.5
5/4/26 - 1500 63.2 60 50.1 WSW | 244 9.4 17.0 848 1,016.7 5 Good 0.00 0.00 46.2 65.5
5/4/26 - 1400 62.1 61 49.6 SW | 236 7.6 14.5 610 1,017.1 4 Good 0.00 0.00 46.2 63.6
5/4/26 - 1300 60.8 62 48.7 W | 267 4.6 10.4 360 1,017.5 4 Good 0.00 0.00 46.2 62.7
5/4/26 - 1200 59.9 63 48.3 WNW | 288 3.8 9.5 202 1,017.8 4 Good 0.00 0.00 46.2 61.3
5/4/26 - 1100 59.7 66 49.2 N | 349 3.4 9.1 277 1,017.5 4 Good 0.00 0.00 46.2 60.9
5/4/26 - 1000 59.7 65 49.0 NE | 43 2.0 7.3 412 1,017.0 4 Good 0.00 0.00 46.2 60.9
5/4/26 - 0900 56.7 76 50.1 NW | 319 1.3 3.5 339 1,017.6 4 Good 0.00 0.00 46.2 59.4
Max 63.2 97 52.7 - 9.4 17.0 848 1,023.3 6 - 0.01 0.01 56.2 65.5
Avg 57.0 76 50.0 - 3.5 8.3 131 1,018.8 4 - 0.00 - - -
Min 50.6 60 46.2 - 0.1 1.8 0 1,016.6 2 - 0.00 0.00 46.2 54.1
Total - - - - - - - - - - 0.01 - - -